This is the latest recevied weather packets stored in our database for station/object IW2LSY-11. If no packets are shown the sender has not sent any weather packets the latest 10 day(s).
| Time | Temp. | Humidity | Pressure | Rain* | Wind** | Luminosity | Snow |
|---|---|---|---|---|---|---|---|
| 1788537021 | 31.11° C | 37% | 1017.1 hPa | - | - | 593 W/m² | - |
| 1788536421 | 30.56° C | 38% | 1017.1 hPa | - | - | 593 W/m² | - |
| 1788535222 | 32.22° C | 36% | 1017.1 hPa | - | - | 590 W/m² | - |
| 1788534619 | 31.67° C | 37% | 1017.2 hPa | - | - | 595 W/m² | - |
| 1788533420 | 31.67° C | 35% | 1017.2 hPa | - | - | 596 W/m² | - |
| 1788532820 | 32.22° C | 32% | 1017.3 hPa | - | - | 597 W/m² | - |
| 1788531620 | 32.22° C | 32% | 1017.4 hPa | - | - | 598 W/m² | - |
| 1788531020 | 32.22° C | 30% | 1017.6 hPa | - | - | 598 W/m² | - |
| 1788530419 | 32.22° C | 33% | 1017.7 hPa | - | - | 598 W/m² | - |
| 1788529819 | 32.78° C | 30% | 1017.7 hPa | - | - | 599 W/m² | - |
| 1788529219 | 32.22° C | 31% | 1017.7 hPa | - | - | 599 W/m² | - |
| 1788528619 | 32.22° C | 31% | 1017.8 hPa | - | - | 598 W/m² | - |
| 1788528019 | 32.22° C | 29% | 1017.9 hPa | - | - | 598 W/m² | - |
| 1788527418 | 31.67° C | 30% | 1018.1 hPa | - | - | 598 W/m² | - |
| 1788526817 | 31.67° C | 30% | 1018.1 hPa | - | - | 595 W/m² | - |
| 1788526217 | 32.22° C | 32% | 1018.2 hPa | - | - | 595 W/m² | - |
| 1788525617 | 31.67° C | 29% | 1018.2 hPa | - | - | 594 W/m² | - |
| 1788525016 | 31.11° C | 28% | 1018.3 hPa | - | - | 591 W/m² | - |
| 1788523817 | 31.67° C | 28% | 1018.6 hPa | - | - | 585 W/m² | - |
| 1788523217 | 31.67° C | 32% | 1018.6 hPa | - | - | 583 W/m² | - |
| 1788522016 | 31.67° C | 34% | 1018.8 hPa | - | - | 574 W/m² | - |
| 1788521416 | 30.56° C | 31% | 1018.9 hPa | - | - | 571 W/m² | - |
| 1788520815 | 31.11° C | 32% | 1019 hPa | - | - | 568 W/m² | - |
| 1788520215 | 30.56° C | 33% | 1019.1 hPa | - | - | 562 W/m² | - |
| 1788519615 | 30.56° C | 34% | 1019.2 hPa | - | - | 559 W/m² | - |
* Rain since midnight (hover to see other rain measurements)
** Current wind speed in m/s (hover to see current wind gust speed)